Time,TemperatureF,DewpointF,PressureIn,WindDirection,WindDirectionDegrees,WindSpeedMPH,WindSpeedGustMPH,Humidity,HourlyPrecipIn,Conditions,Clouds,dailyrainin,SolarRadiationWatts/m^2,SoftwareType,DateUTC
2013-02-10 00:02:00,28.4,25.9,29.95,ENE,76,0.0,1.0,90,0.00,,---,0.00,0.00,VWS V14.00,2013-02-10 06:02:00,
2013-02-10 00:07:00,28.4,25.9,29.95,SE,136,0.0,2.0,90,0.00,,---,0.00,0.00,VWS V14.00,2013-02-10 06:07:00,
2013-02-10 00:12:00,28.3,25.8,29.95,SE,136,0.0,2.0,90,0.00,,---,0.00,0.00,VWS V14.00,2013-02-10 06:12:00,
2013-02-10 00:17:00,28.3,25.8,29.95,NE,40,0.0,4.0,90,0.00,,---,0.00,0.00,VWS V14.00,2013-02-10 06:17:00,
2013-02-10 00:22:00,28.2,25.6,29.94,ENE,62,1.0,4.0,90,0.00,,---,0.00,0.00,VWS V14.00,2013-02-10 06:22:00,
2013-02-10 00:27:00,28.2,25.6,29.94,SSE,166,0.0,4.0,90,0.00,,---,0.00,0.00,VWS V14.00,2013-02-10 06:27:00,
2013-02-10 00:32:00,28.2,25.6,29.94,South,189,0.0,3.0,90,0.00,,---,0.00,0.00,VWS V14.00,2013-02-10 06:32:00,
2013-02-10 00:37:00,28.2,25.6,29.94,SSW,192,0.0,3.0,90,0.00,,---,0.00,0.00,VWS V14.00,2013-02-10 06:37:00,
2013-02-10 00:42:00,28.1,25.3,29.94,South,178,0.0,3.0,89,0.00,,---,0.00,0.00,VWS V14.00,2013-02-10 06:42:00,
2013-02-10 00:47:00,28.1,25.3,29.94,SSE,156,0.0,3.0,89,0.00,,---,0.00,0.00,VWS V14.00,2013-02-10 06:47:00,
2013-02-10 00:53:00,28.1,25.3,29.94,NE,37,0.0,3.0,89,0.00,,---,0.00,0.00,VWS V14.00,2013-02-10 06:53:00,
2013-02-10 00:58:00,28.1,25.3,29.93,NE,47,0.0,0.0,89,0.00,,---,0.00,0.00,VWS V14.00,2013-02-10 06:58:00,
2013-02-10 01:03:00,28.1,25.3,29.93,NE,48,0.0,1.0,89,0.00,,---,0.00,0.00,VWS V14.00,2013-02-10 07:03:00,
2013-02-10 01:08:00,28.1,25.3,29.93,ESE,122,0.0,2.0,89,0.00,,---,0.00,0.00,VWS V14.00,2013-02-10 07:08:00,
2013-02-10 01:13:00,28.1,25.3,29.93,South,180,0.0,2.0,89,0.00,,---,0.00,0.00,VWS V14.00,2013-02-10 07:13:00,
2013-02-10 01:18:00,28.0,25.2,29.93,ESE,112,0.0,2.0,89,0.00,,---,0.00,0.00,VWS V14.00,2013-02-10 07:18:00,
2013-02-10 01:23:00,28.0,25.2,29.93,ESE,112,0.0,2.0,89,0.00,,---,0.00,0.00,VWS V14.00,2013-02-10 07:23:00,
2013-02-10 01:28:00,28.0,25.2,29.93,East,82,0.0,1.0,89,0.00,,---,0.00,0.00,VWS V14.00,2013-02-10 07:28:00,
2013-02-10 01:33:00,28.0,25.2,29.92,SE,140,0.0,2.0,89,0.00,,---,0.00,0.00,VWS V14.00,2013-02-10 07:33:00,
2013-02-10 01:38:00,28.0,25.5,29.91,NE,48,0.0,2.0,90,0.00,,---,0.00,0.00,VWS V14.00,2013-02-10 07:38:00,
2013-02-10 01:44:00,28.1,25.5,29.91,SE,134,0.0,3.0,90,0.00,,---,0.00,0.00,VWS V14.00,2013-02-10 07:44:00,
2013-02-10 01:49:00,28.1,25.5,29.91,SE,134,0.0,3.0,90,0.00,,---,0.00,0.00,VWS V14.00,2013-02-10 07:49:00,
2013-02-10 01:54:00,28.1,25.5,29.90,SW,219,0.0,3.0,90,0.00,,---,0.00,0.00,VWS V14.00,2013-02-10 07:54:00,
2013-02-10 01:59:00,28.1,25.5,29.91,ESE,109,0.0,1.0,90,0.00,,---,0.00,0.00,VWS V14.00,2013-02-10 07:59:00,
2013-02-10 02:04:00,28.2,25.6,29.90,SE,146,0.0,2.0,90,0.00,,---,0.00,0.00,VWS V14.00,2013-02-10 08:04:00,
2013-02-10 02:09:00,28.2,25.6,29.90,ENE,70,0.0,2.0,90,0.00,,---,0.00,0.00,VWS V14.00,2013-02-10 08:09:00,
2013-02-10 02:14:00,28.3,25.8,29.89,North,9,0.0,3.0,90,0.00,,---,0.00,0.00,VWS V14.00,2013-02-10 08:14:00,
2013-02-10 02:19:00,28.3,25.8,29.89,SSE,155,0.0,4.0,90,0.00,,---,0.00,0.00,VWS V14.00,2013-02-10 08:19:00,
2013-02-10 02:24:00,28.3,25.8,29.88,South,178,1.0,4.0,90,0.00,,---,0.00,0.00,VWS V14.00,2013-02-10 08:24:00,
2013-02-10 02:29:00,28.3,25.8,29.88,South,190,0.0,3.0,90,0.00,,---,0.00,0.00,VWS V14.00,2013-02-10 08:29:00,
2013-02-10 02:34:00,28.3,25.8,29.88,NNE,27,0.0,3.0,90,0.00,,---,0.00,0.00,VWS V14.00,2013-02-10 08:34:00,
2013-02-10 02:40:00,28.3,25.8,29.88,East,80,0.0,4.0,90,0.00,,---,0.00,0.00,VWS V14.00,2013-02-10 08:40:00,
2013-02-10 02:45:00,28.3,25.8,29.88,ESE,120,0.0,4.0,90,0.00,,---,0.00,0.00,VWS V14.00,2013-02-10 08:45:00,
2013-02-10 02:50:00,28.3,25.8,29.87,SE,126,0.0,4.0,90,0.00,,---,0.00,0.00,VWS V14.00,2013-02-10 08:50:00,
2013-02-10 02:55:00,28.3,25.8,29.87,ESE,115,0.0,4.0,90,0.00,,---,0.00,0.00,VWS V14.00,2013-02-10 08:55:00,
2013-02-10 03:00:00,28.3,25.8,29.86,NNE,17,2.0,2.0,90,0.00,,---,0.00,0.00,VWS V14.00,2013-02-10 09:00:00,
2013-02-10 03:05:00,28.3,25.8,29.86,SE,146,0.0,2.0,90,0.00,,---,0.00,0.00,VWS V14.00,2013-02-10 09:05:00,
2013-02-10 03:10:00,28.3,25.8,29.86,NE,55,2.0,3.0,90,0.00,,---,0.00,0.00,VWS V14.00,2013-02-10 09:10:00,
2013-02-10 03:15:00,28.3,25.8,29.85,NE,51,0.0,3.0,90,0.00,,---,0.00,0.00,VWS V14.00,2013-02-10 09:15:00,
2013-02-10 03:20:00,28.3,25.8,29.84,NNE,19,0.0,3.0,90,0.00,,---,0.00,0.00,VWS V14.00,2013-02-10 09:20:00,
2013-02-10 03:25:00,28.3,25.8,29.83,NNE,13,0.0,3.0,90,0.00,,---,0.00,0.00,VWS V14.00,2013-02-10 09:25:00,
2013-02-10 03:31:00,28.3,25.8,29.83,East,83,4.0,4.0,90,0.00,,---,0.00,0.00,VWS V14.00,2013-02-10 09:31:00,
2013-02-10 03:36:00,28.3,25.8,29.83,SSE,159,1.0,4.0,90,0.00,,---,0.00,0.00,VWS V14.00,2013-02-10 09:36:00,
2013-02-10 03:41:00,28.3,25.8,29.82,NE,42,1.0,9.0,90,0.00,,---,0.00,0.00,VWS V14.00,2013-02-10 09:41:00,
2013-02-10 03:46:00,28.3,25.8,29.83,ESE,109,0.0,9.0,90,0.00,,---,0.00,0.00,VWS V14.00,2013-02-10 09:46:00,
2013-02-10 03:51:00,28.3,25.8,29.82,ENE,75,0.0,9.0,90,0.00,,---,0.00,0.00,VWS V14.00,2013-02-10 09:51:00,
2013-02-10 03:56:00,28.3,25.8,29.81,SE,132,0.0,9.0,90,0.00,,---,0.00,0.00,VWS V14.00,2013-02-10 09:56:00,
2013-02-10 04:01:00,28.3,25.8,29.82,NNW,340,0.0,4.0,90,0.00,,---,0.00,0.00,VWS V14.00,2013-02-10 10:01:00,
2013-02-10 04:06:00,28.3,26.0,29.81,NW,305,0.0,4.0,91,0.00,,---,0.00,0.00,VWS V14.00,2013-02-10 10:06:00,
2013-02-10 04:11:00,28.4,26.1,29.81,NNE,14,1.0,4.0,91,0.00,,---,0.00,0.00,VWS V14.00,2013-02-10 10:11:00,
2013-02-10 04:16:00,28.4,26.1,29.82,ENE,76,0.0,4.0,91,0.00,,---,0.00,0.00,VWS V14.00,2013-02-10 10:16:00,
2013-02-10 04:22:00,28.3,26.0,29.81,ESE,122,0.0,4.0,91,0.00,,---,0.00,0.00,VWS V14.00,2013-02-10 10:22:00,
2013-02-10 04:27:00,28.3,26.3,29.81,ENE,78,0.0,9.0,92,0.00,,---,0.00,0.00,VWS V14.00,2013-02-10 10:27:00,
2013-02-10 04:32:00,28.3,26.3,29.79,East,82,0.0,2.0,92,0.00,,---,0.00,0.00,VWS V14.00,2013-02-10 10:32:00,
2013-02-10 04:37:00,28.3,26.3,29.79,NE,51,1.0,6.0,92,0.00,,---,0.00,0.00,VWS V14.00,2013-02-10 10:37:00,
2013-02-10 04:42:00,28.4,26.4,29.78,NNE,13,0.0,6.0,92,0.00,,---,0.00,0.00,VWS V14.00,2013-02-10 10:42:00,
2013-02-10 04:47:00,28.4,26.4,29.78,WSW,255,0.0,6.0,92,0.00,,---,0.00,0.00,VWS V14.00,2013-02-10 10:47:00,
2013-02-10 04:52:00,28.5,26.5,29.77,South,177,0.0,10.0,92,0.00,,---,0.00,0.00,VWS V14.00,2013-02-10 10:52:00,
2013-02-10 04:57:00,28.4,26.4,29.77,ESE,107,3.0,10.0,92,0.00,,---,0.00,0.00,VWS V14.00,2013-02-10 10:57:00,
2013-02-10 05:02:00,28.4,26.4,29.76,SSW,192,0.0,5.0,92,0.00,,---,0.00,0.00,VWS V14.00,2013-02-10 11:02:00,
2013-02-10 05:07:00,28.3,26.3,29.75,NNW,342,2.0,10.0,92,0.00,,---,0.00,0.00,VWS V14.00,2013-02-10 11:07:00,
2013-02-10 05:13:00,28.2,26.2,29.76,NNE,18,3.0,10.0,92,0.00,,---,0.00,0.00,VWS V14.00,2013-02-10 11:13:00,
2013-02-10 05:18:00,28.2,26.2,29.75,SE,134,0.0,10.0,92,0.00,,---,0.00,0.00,VWS V14.00,2013-02-10 11:18:00,
2013-02-10 05:23:00,28.1,26.1,29.75,NE,48,2.0,11.0,92,0.00,,---,0.00,0.00,VWS V14.00,2013-02-10 11:23:00,
2013-02-10 05:28:00,28.1,25.8,29.74,North,360,2.0,2.0,91,0.00,,---,0.00,0.00,VWS V14.00,2013-02-10 11:28:00,
2013-02-10 05:33:00,28.0,25.7,29.74,NE,37,0.0,7.0,91,0.00,,---,0.00,0.00,VWS V14.00,2013-02-10 11:33:00,
2013-02-10 05:38:00,28.0,25.7,29.73,ESE,116,1.0,7.0,91,0.00,,---,0.00,0.00,VWS V14.00,2013-02-10 11:38:00,
2013-02-10 05:43:00,28.0,25.7,29.72,ENE,68,1.0,10.0,91,0.00,,---,0.00,0.00,VWS V14.00,2013-02-10 11:43:00,
2013-02-10 05:48:00,28.0,25.7,29.72,West,273,2.0,10.0,91,0.00,,---,0.00,0.00,VWS V14.00,2013-02-10 11:48:00,
2013-02-10 05:53:00,28.1,25.8,29.72,NE,42,2.0,13.0,91,0.00,,---,0.00,0.00,VWS V14.00,2013-02-10 11:53:00,
2013-02-10 05:58:00,28.1,25.8,29.72,South,188,2.0,3.0,91,0.00,,---,0.00,0.00,VWS V14.00,2013-02-10 11:58:00,
2013-02-10 06:04:00,28.2,25.9,29.72,North,5,2.0,3.0,91,0.00,,---,0.00,0.00,VWS V14.00,2013-02-10 12:04:00,
2013-02-10 06:09:00,28.3,26.0,29.70,SE,136,4.0,15.0,91,0.00,,---,0.00,0.00,VWS V14.00,2013-02-10 12:09:00,
2013-02-10 06:14:00,28.4,26.1,29.71,NE,40,1.0,15.0,91,0.00,,---,0.00,0.00,VWS V14.00,2013-02-10 12:14:00,
2013-02-10 06:19:00,28.4,26.1,29.72,NNE,31,7.0,15.0,91,0.00,,---,0.00,0.00,VWS V14.00,2013-02-10 12:19:00,
2013-02-10 06:24:00,28.5,26.2,29.73,NE,36,1.0,15.0,91,0.00,,---,0.00,0.00,VWS V14.00,2013-02-10 12:24:00,
2013-02-10 06:29:00,28.5,26.2,29.73,SSW,196,0.0,4.0,91,0.00,,---,0.00,0.00,VWS V14.00,2013-02-10 12:29:00,
2013-02-10 06:34:00,28.5,26.2,29.72,ESE,123,0.0,7.0,91,0.00,,---,0.00,0.00,VWS V14.00,2013-02-10 12:34:00,
2013-02-10 06:39:00,28.6,26.3,29.72,ESE,123,0.0,7.0,91,0.00,,---,0.00,0.00,VWS V14.00,2013-02-10 12:39:00,
2013-02-10 06:44:00,28.5,26.2,29.71,East,98,0.0,7.0,91,0.00,,---,0.00,0.00,VWS V14.00,2013-02-10 12:44:00,
2013-02-10 06:50:00,28.5,26.0,29.71,NNE,26,2.0,7.0,90,0.00,,---,0.00,0.00,VWS V14.00,2013-02-10 12:50:00,
2013-02-10 06:55:00,28.6,26.0,29.71,ESE,105,0.0,7.0,90,0.00,,---,0.00,0.00,VWS V14.00,2013-02-10 12:55:00,
2013-02-10 07:00:00,28.6,26.0,29.70,North,355,0.0,2.0,90,0.00,,---,0.00,0.00,VWS V14.00,2013-02-10 13:00:00,
2013-02-10 07:05:00,28.6,26.0,29.69,NE,56,1.0,4.0,90,0.00,,---,0.00,0.00,VWS V14.00,2013-02-10 13:05:00,
2013-02-10 07:10:00,28.5,26.0,29.69,NE,38,1.0,7.0,90,0.00,,---,0.00,0.00,VWS V14.00,2013-02-10 13:10:00,
2013-02-10 07:15:00,28.5,26.0,29.68,NNW,336,0.0,7.0,90,0.00,,---,0.00,0.00,VWS V14.00,2013-02-10 13:15:00,
2013-02-10 07:20:00,28.6,26.0,29.66,NNW,346,5.0,8.0,90,0.00,,---,0.00,0.00,VWS V14.00,2013-02-10 13:20:00,
2013-02-10 07:25:00,28.6,26.0,29.65,NNE,16,11.0,13.0,90,0.00,,---,0.00,0.00,VWS V14.00,2013-02-10 13:25:00,
2013-02-10 07:30:00,28.6,26.0,29.64,NNE,30,2.0,7.0,90,0.00,,---,0.00,0.00,VWS V14.00,2013-02-10 13:30:00,
2013-02-10 07:35:00,28.5,26.0,29.62,NNE,18,7.0,7.0,90,0.00,,---,0.00,0.00,VWS V14.00,2013-02-10 13:35:00,
2013-02-10 07:41:00,28.4,25.9,29.63,NE,43,1.0,11.0,90,0.00,,---,0.00,0.00,VWS V14.00,2013-02-10 13:41:00,
2013-02-10 07:46:00,28.5,26.0,29.65,SW,219,2.0,11.0,90,0.00,,---,0.00,0.00,VWS V14.00,2013-02-10 13:46:00,
2013-02-10 07:51:00,28.5,26.0,29.66,NE,50,3.0,11.0,90,0.00,,---,0.00,0.00,VWS V14.00,2013-02-10 13:51:00,
2013-02-10 07:56:00,28.5,26.0,29.67,SE,137,4.0,11.0,90,0.00,,---,0.00,0.00,VWS V14.00,2013-02-10 13:56:00,
2013-02-10 08:01:00,28.5,26.0,29.67,NNW,346,1.0,10.0,90,0.00,,---,0.00,0.00,VWS V14.00,2013-02-10 14:01:00,
2013-02-10 08:06:00,28.4,25.9,29.66,North,5,5.0,10.0,90,0.00,,---,0.00,0.00,VWS V14.00,2013-02-10 14:06:00,
2013-02-10 08:11:00,28.4,25.9,29.64,NNE,33,1.0,12.0,90,0.00,,---,0.00,5.00,VWS V14.00,2013-02-10 14:11:00,
2013-02-10 08:16:00,28.4,25.9,29.63,East,90,4.0,12.0,90,0.00,,---,0.00,9.00,VWS V14.00,2013-02-10 14:16:00,
2013-02-10 08:21:00,28.5,26.2,29.62,NNE,17,5.0,12.0,91,0.00,,---,0.00,11.00,VWS V14.00,2013-02-10 14:21:00,
2013-02-10 08:26:00,28.5,26.2,29.63,East,92,4.0,13.0,91,0.00,,---,0.00,5.00,VWS V14.00,2013-02-10 14:26:00,
2013-02-10 08:31:00,28.7,26.7,29.62,ENE,65,2.0,12.0,92,0.00,,---,0.00,5.00,VWS V14.00,2013-02-10 14:31:00,
2013-02-10 08:36:00,28.7,26.7,29.62,ENE,64,1.0,12.0,92,0.00,,---,0.00,5.00,VWS V14.00,2013-02-10 14:36:00,
2013-02-10 08:41:00,28.8,26.8,29.63,East,98,2.0,12.0,92,0.00,,---,0.00,0.00,VWS V14.00,2013-02-10 14:41:00,
2013-02-10 08:46:00,28.8,26.8,29.62,ENE,74,7.0,12.0,92,0.00,,---,0.00,5.00,VWS V14.00,2013-02-10 14:46:00,
2013-02-10 08:51:00,28.9,27.1,29.61,ENE,63,2.0,12.0,93,0.00,,---,0.00,7.00,VWS V14.00,2013-02-10 14:51:00,
2013-02-10 08:56:00,29.0,27.2,29.60,NE,44,0.0,16.0,93,0.00,,---,0.00,7.00,VWS V14.00,2013-02-10 14:56:00,
2013-02-10 09:01:00,29.0,27.2,29.60,NNE,19,7.0,11.0,93,0.00,,---,0.00,7.00,VWS V14.00,2013-02-10 15:01:00,
2013-02-10 09:06:00,29.0,27.2,29.59,NNW,333,1.0,11.0,93,0.00,,---,0.00,7.00,VWS V14.00,2013-02-10 15:06:00,
2013-02-10 09:11:00,29.0,27.2,29.60,North,11,1.0,12.0,93,0.00,,---,0.00,5.00,VWS V14.00,2013-02-10 15:11:00,
2013-02-10 09:16:00,29.1,27.3,29.59,NW,314,2.0,12.0,93,0.00,,---,0.00,12.00,VWS V14.00,2013-02-10 15:16:00,
2013-02-10 09:22:00,29.1,27.3,29.59,NW,319,3.0,12.0,93,0.00,,---,0.00,12.00,VWS V14.00,2013-02-10 15:22:00,
2013-02-10 09:27:00,29.0,27.2,29.59,SSE,159,0.0,12.0,93,0.00,,---,0.00,9.00,VWS V14.00,2013-02-10 15:27:00,
2013-02-10 09:32:00,29.0,27.2,29.59,NNE,19,2.0,6.0,93,0.00,,---,0.00,11.00,VWS V14.00,2013-02-10 15:32:00,
2013-02-10 09:37:00,29.0,27.2,29.59,North,360,1.0,6.0,93,0.00,,---,0.00,12.00,VWS V14.00,2013-02-10 15:37:00,
2013-02-10 09:42:00,29.0,27.2,29.57,North,355,0.0,6.0,93,0.00,,---,0.00,12.00,VWS V14.00,2013-02-10 15:42:00,
2013-02-10 09:47:00,28.9,27.4,29.56,NE,40,0.0,6.0,94,0.00,,---,0.00,12.00,VWS V14.00,2013-02-10 15:47:00,
2013-02-10 09:52:00,28.9,27.4,29.56,NE,38,0.0,7.0,94,0.00,,---,0.00,14.00,VWS V14.00,2013-02-10 15:52:00,
2013-02-10 09:57:00,29.0,27.5,29.55,North,5,1.0,7.0,94,0.00,,---,0.00,11.00,VWS V14.00,2013-02-10 15:57:00,
2013-02-10 10:02:00,29.0,27.5,29.55,NW,320,0.0,4.0,94,0.00,,---,0.00,12.00,VWS V14.00,2013-02-10 16:02:00,
2013-02-10 10:07:00,29.1,27.6,29.56,NE,53,1.0,5.0,94,0.00,,---,0.00,12.00,VWS V14.00,2013-02-10 16:07:00,
2013-02-10 10:12:00,29.2,27.7,29.56,NW,307,0.0,5.0,94,0.00,,---,0.00,16.00,VWS V14.00,2013-02-10 16:12:00,
2013-02-10 10:17:00,29.2,27.7,29.55,ENE,67,2.0,7.0,94,0.00,,---,0.00,19.00,VWS V14.00,2013-02-10 16:17:00,
2013-02-10 10:22:00,29.2,27.7,29.54,North,9,3.0,7.0,94,0.00,,---,0.00,14.00,VWS V14.00,2013-02-10 16:22:00,
2013-02-10 10:27:00,29.0,27.5,29.51,NNE,12,3.0,15.0,94,0.00,,---,0.00,40.00,VWS V14.00,2013-02-10 16:27:00,
2013-02-10 10:32:00,29.2,28.0,29.50,North,351,6.0,12.0,95,0.00,,---,0.00,67.00,VWS V14.00,2013-02-10 16:32:00,
2013-02-10 10:37:00,29.4,28.1,29.50,East,88,2.0,12.0,95,0.00,,---,0.00,40.00,VWS V14.00,2013-02-10 16:37:00,
2013-02-10 10:42:00,29.6,28.4,29.50,NNE,23,3.0,13.0,95,0.00,,---,0.00,16.00,VWS V14.00,2013-02-10 16:42:00,
2013-02-10 10:47:00,29.8,28.5,29.52,NNE,28,1.0,13.0,95,0.00,,---,0.00,21.00,VWS V14.00,2013-02-10 16:47:00,
2013-02-10 10:53:00,29.9,28.6,29.51,North,355,2.0,13.0,95,0.00,,---,0.00,28.00,VWS V14.00,2013-02-10 16:53:00,
2013-02-10 10:57:00,29.9,28.6,29.51,NNE,20,1.0,13.0,95,0.00,,---,0.00,32.00,VWS V14.00,2013-02-10 16:57:00,
2013-02-10 11:03:00,30.0,28.7,29.50,NE,54,2.0,5.0,95,0.00,,---,0.00,37.00,VWS V14.00,2013-02-10 17:03:00,
2013-02-10 11:08:00,30.1,28.8,29.50,North,5,2.0,5.0,95,0.00,,---,0.00,46.00,VWS V14.00,2013-02-10 17:08:00,
2013-02-10 11:13:00,30.2,28.9,29.50,NNE,13,1.0,7.0,95,0.00,,---,0.00,53.00,VWS V14.00,2013-02-10 17:13:00,
2013-02-10 11:18:00,30.2,28.9,29.49,East,84,1.0,7.0,95,0.00,,---,0.00,49.00,VWS V14.00,2013-02-10 17:18:00,
2013-02-10 11:23:00,30.3,29.0,29.49,NNW,329,1.0,7.0,95,0.00,,---,0.00,25.00,VWS V14.00,2013-02-10 17:23:00,
2013-02-10 11:28:00,30.3,29.0,29.48,North,9,3.0,3.0,95,0.00,,---,0.00,12.00,VWS V14.00,2013-02-10 17:28:00,
2013-02-10 11:33:00,30.2,28.9,29.49,NE,54,0.0,3.0,95,0.00,,---,0.00,11.00,VWS V14.00,2013-02-10 17:33:00,
2013-02-10 11:38:00,30.2,28.9,29.48,NNE,15,0.0,5.0,95,0.00,,---,0.00,9.00,VWS V14.00,2013-02-10 17:38:00,
2013-02-10 11:43:00,30.1,28.8,29.47,NNW,327,2.0,5.0,95,0.00,,---,0.00,12.00,VWS V14.00,2013-02-10 17:43:00,
2013-02-10 11:48:00,30.2,28.9,29.47,NE,34,1.0,5.0,95,0.00,,---,0.00,26.00,VWS V14.00,2013-02-10 17:48:00,
2013-02-10 11:53:00,30.3,29.3,29.46,NNE,25,2.0,5.0,96,0.00,,---,0.00,28.00,VWS V14.00,2013-02-10 17:53:00,
2013-02-10 11:58:00,30.5,29.5,29.45,South,186,2.0,2.0,96,0.00,,---,0.00,28.00,VWS V14.00,2013-02-10 17:58:00,
2013-02-10 12:03:00,30.6,29.6,29.46,ENE,77,1.0,6.0,96,0.00,,---,0.00,12.00,VWS V14.00,2013-02-10 18:03:00,
2013-02-10 12:08:00,30.6,29.6,29.46,ENE,65,1.0,6.0,96,0.00,,---,0.00,5.00,VWS V14.00,2013-02-10 18:08:00,
2013-02-10 12:13:00,30.6,29.3,29.45,North,5,0.0,10.0,95,0.00,,---,0.00,12.00,VWS V14.00,2013-02-10 18:13:00,
2013-02-10 12:18:00,30.6,29.6,29.44,NNE,25,3.0,10.0,96,0.00,,---,0.00,16.00,VWS V14.00,2013-02-10 18:18:00,
2013-02-10 12:23:00,30.6,29.6,29.43,NNE,24,4.0,10.0,96,0.00,,---,0.00,21.00,VWS V14.00,2013-02-10 18:23:00,
2013-02-10 12:28:00,30.7,29.7,29.43,NNW,332,0.0,1.0,96,0.00,,---,0.00,16.00,VWS V14.00,2013-02-10 18:28:00,
2013-02-10 12:33:00,30.8,29.8,29.42,NNW,334,0.0,1.0,96,0.00,,---,0.00,18.00,VWS V14.00,2013-02-10 18:33:00,
2013-02-10 12:39:00,30.9,29.9,29.42,NE,43,0.0,6.0,96,0.00,,---,0.00,18.00,VWS V14.00,2013-02-10 18:39:00,
2013-02-10 12:44:00,31.0,30.0,29.41,NNE,30,0.0,6.0,96,0.00,,---,0.00,18.00,VWS V14.00,2013-02-10 18:44:00,
2013-02-10 12:49:00,31.0,30.0,29.40,NNW,344,1.0,6.0,96,0.00,,---,0.00,16.00,VWS V14.00,2013-02-10 18:49:00,
2013-02-10 12:54:00,31.1,30.1,29.41,NE,46,0.0,6.0,96,0.00,,---,0.00,26.00,VWS V14.00,2013-02-10 18:54:00,
2013-02-10 12:59:00,31.3,30.3,29.41,SW,219,0.0,2.0,96,0.00,,---,0.00,25.00,VWS V14.00,2013-02-10 18:59:00,
2013-02-10 13:04:00,31.4,30.4,29.40,North,355,3.0,5.0,96,0.00,,---,0.00,28.00,VWS V14.00,2013-02-10 19:04:00,
2013-02-10 13:09:00,31.4,30.4,29.39,ENE,73,0.0,11.0,96,0.00,,---,0.00,18.00,VWS V14.00,2013-02-10 19:09:00,
2013-02-10 13:14:00,31.5,30.5,29.40,NE,35,2.0,11.0,96,0.00,,---,0.00,18.00,VWS V14.00,2013-02-10 19:14:00,
2013-02-10 13:19:00,31.5,30.5,29.39,North,10,0.0,11.0,96,0.00,,---,0.00,18.00,VWS V14.00,2013-02-10 19:19:00,
2013-02-10 13:24:00,31.6,30.6,29.39,NE,37,1.0,11.0,96,0.00,,---,0.00,28.00,VWS V14.00,2013-02-10 19:24:00,
2013-02-10 13:29:00,31.7,30.7,29.39,NE,49,0.0,2.0,96,0.00,,---,0.00,23.00,VWS V14.00,2013-02-10 19:29:00,
2013-02-10 13:34:00,31.7,30.7,29.38,South,183,0.0,4.0,96,0.00,,---,0.00,25.00,VWS V14.00,2013-02-10 19:34:00,
2013-02-10 13:39:00,31.9,30.9,29.37,NE,38,1.0,4.0,96,0.00,,---,0.00,33.00,VWS V14.00,2013-02-10 19:39:00,
2013-02-10 13:44:00,31.8,30.8,29.37,East,82,1.0,9.0,96,0.00,,---,0.00,21.00,VWS V14.00,2013-02-10 19:44:00,
2013-02-10 13:49:00,31.9,30.9,29.37,South,169,0.0,9.0,96,0.00,,---,0.00,16.00,VWS V14.00,2013-02-10 19:49:00,
2013-02-10 13:54:00,31.9,30.9,29.37,NE,51,0.0,9.0,96,0.00,,---,0.00,12.00,VWS V14.00,2013-02-10 19:54:00,
2013-02-10 13:59:00,31.9,30.9,29.38,NNE,24,0.0,3.0,96,0.00,,---,0.00,12.00,VWS V14.00,2013-02-10 19:59:00,
2013-02-10 14:04:00,31.9,30.9,29.37,NNE,27,1.0,4.0,96,0.00,,---,0.00,12.00,VWS V14.00,2013-02-10 20:04:00,
2013-02-10 14:09:00,31.8,30.8,29.37,ENE,72,0.0,4.0,96,0.00,,---,0.00,11.00,VWS V14.00,2013-02-10 20:09:00,
2013-02-10 14:14:00,31.9,30.9,29.36,NE,41,0.0,5.0,96,0.00,,---,0.00,9.00,VWS V14.00,2013-02-10 20:14:00,
2013-02-10 14:19:00,31.9,30.9,29.36,NE,36,1.0,5.0,96,0.00,,---,0.00,14.00,VWS V14.00,2013-02-10 20:19:00,
2013-02-10 14:24:00,31.9,30.9,29.35,NNE,23,3.0,5.0,96,0.00,,---,0.00,14.00,VWS V14.00,2013-02-10 20:24:00,
2013-02-10 14:30:00,32.0,31.0,29.35,ENE,67,0.0,3.0,96,0.00,,---,0.00,14.00,VWS V14.00,2013-02-10 20:30:00,
2013-02-10 14:34:00,32.1,31.1,29.35,WSW,244,1.0,3.0,96,0.00,,---,0.00,11.00,VWS V14.00,2013-02-10 20:34:00,
2013-02-10 14:40:00,32.1,31.1,29.34,East,88,1.0,4.0,96,0.00,,---,0.00,12.00,VWS V14.00,2013-02-10 20:40:00,
2013-02-10 14:45:00,32.2,31.2,29.34,West,267,0.0,5.0,96,0.00,,---,0.00,11.00,VWS V14.00,2013-02-10 20:45:00,
2013-02-10 14:50:00,32.2,31.2,29.34,NE,52,0.0,5.0,96,0.00,,---,0.00,11.00,VWS V14.00,2013-02-10 20:50:00,
2013-02-10 14:55:00,32.3,31.3,29.34,NNW,348,0.0,5.0,96,0.00,,---,0.00,11.00,VWS V14.00,2013-02-10 20:55:00,
2013-02-10 15:00:00,32.3,31.3,29.34,ENE,60,2.0,2.0,96,0.00,,---,0.00,11.00,VWS V14.00,2013-02-10 21:00:00,
2013-02-10 15:05:00,32.3,31.3,29.33,NNE,28,0.0,3.0,96,0.00,,---,0.00,11.00,VWS V14.00,2013-02-10 21:05:00,
2013-02-10 15:10:00,32.4,31.4,29.33,NE,53,1.0,3.0,96,0.00,,---,0.00,11.00,VWS V14.00,2013-02-10 21:10:00,
2013-02-10 15:15:00,32.4,31.4,29.33,NE,42,1.0,3.0,96,0.00,,---,0.00,12.00,VWS V14.00,2013-02-10 21:15:00,
2013-02-10 15:20:00,32.4,31.4,29.33,NE,36,0.0,3.0,96,0.00,,---,0.00,11.00,VWS V14.00,2013-02-10 21:20:00,
2013-02-10 15:25:00,32.4,31.4,29.33,NE,51,1.0,5.0,96,0.00,,---,0.00,11.00,VWS V14.00,2013-02-10 21:25:00,
2013-02-10 15:30:00,32.5,31.5,29.33,NE,48,0.0,3.0,96,0.00,,---,0.00,11.00,VWS V14.00,2013-02-10 21:30:00,
2013-02-10 15:35:00,32.5,31.5,29.33,NNE,29,0.0,4.0,96,0.00,,---,0.00,9.00,VWS V14.00,2013-02-10 21:35:00,
2013-02-10 15:40:00,32.5,31.5,29.32,NE,36,2.0,4.0,96,0.00,,---,0.00,9.00,VWS V14.00,2013-02-10 21:40:00,
2013-02-10 15:46:00,32.6,31.6,29.33,NNE,21,0.0,4.0,96,0.00,,---,0.00,9.00,VWS V14.00,2013-02-10 21:46:00,
2013-02-10 15:51:00,32.6,31.6,29.33,NE,34,0.0,4.0,96,0.00,,---,0.00,7.00,VWS V14.00,2013-02-10 21:51:00,
2013-02-10 15:56:00,32.6,31.6,29.33,SE,124,0.0,4.0,96,0.00,,---,0.00,7.00,VWS V14.00,2013-02-10 21:56:00,
2013-02-10 16:01:00,32.6,31.6,29.32,NE,47,0.0,3.0,96,0.00,,---,0.00,5.00,VWS V14.00,2013-02-10 22:01:00,
2013-02-10 16:06:00,32.6,31.6,29.32,NE,35,0.0,3.0,96,0.00,,---,0.00,5.00,VWS V14.00,2013-02-10 22:06:00,
2013-02-10 16:11:00,32.6,31.6,29.32,NE,38,0.0,3.0,96,0.00,,---,0.00,5.00,VWS V14.00,2013-02-10 22:11:00,
2013-02-10 16:16:00,32.6,31.6,29.32,NE,39,1.0,3.0,96,0.00,,---,0.00,5.00,VWS V14.00,2013-02-10 22:16:00,
2013-02-10 16:21:00,32.6,31.6,29.32,NE,38,0.0,3.0,96,0.00,,---,0.00,5.00,VWS V14.00,2013-02-10 22:21:00,
2013-02-10 16:26:00,32.6,31.6,29.32,NNE,25,0.0,5.0,96,0.00,,---,0.00,0.00,VWS V14.00,2013-02-10 22:26:00,
2013-02-10 16:31:00,32.6,31.6,29.32,NNE,24,0.0,3.0,96,0.00,,---,0.00,0.00,VWS V14.00,2013-02-10 22:31:00,
2013-02-10 16:36:00,32.6,31.6,29.31,NNE,16,2.0,4.0,96,0.00,,---,0.00,0.00,VWS V14.00,2013-02-10 22:36:00,
2013-02-10 16:41:00,32.6,31.6,29.31,NNE,19,0.0,4.0,96,0.00,,---,0.00,0.00,VWS V14.00,2013-02-10 22:41:00,
2013-02-10 16:46:00,32.6,31.6,29.31,NNE,20,0.0,4.0,96,0.00,,---,0.00,0.00,VWS V14.00,2013-02-10 22:46:00,
2013-02-10 16:51:00,32.7,31.7,29.31,NNE,22,0.0,4.0,96,0.00,,---,0.00,0.00,VWS V14.00,2013-02-10 22:51:00,
2013-02-10 16:56:00,32.6,31.6,29.31,NNE,26,0.0,4.0,96,0.00,,---,0.00,0.00,VWS V14.00,2013-02-10 22:56:00,
2013-02-10 17:01:00,32.7,31.7,29.31,NNE,26,0.0,1.0,96,0.00,,---,0.00,0.00,VWS V14.00,2013-02-10 23:01:00,
2013-02-10 17:06:00,32.7,31.7,29.31,NNE,25,0.0,2.0,96,0.00,,---,0.00,0.00,VWS V14.00,2013-02-10 23:06:00,
2013-02-10 17:11:00,32.7,31.7,29.31,NNE,30,1.0,3.0,96,0.00,,---,0.00,0.00,VWS V14.00,2013-02-10 23:11:00,
2013-02-10 17:16:00,32.7,31.7,29.31,NNE,30,2.0,3.0,96,0.00,,---,0.00,0.00,VWS V14.00,2013-02-10 23:16:00,
2013-02-10 17:21:00,32.7,31.7,29.31,North,360,1.0,4.0,96,0.00,,---,0.00,0.00,VWS V14.00,2013-02-10 23:21:00,
2013-02-10 17:26:00,32.7,31.7,29.31,NE,37,0.0,5.0,96,0.00,,---,0.00,0.00,VWS V14.00,2013-02-10 23:26:00,
2013-02-10 17:31:00,32.7,31.7,29.31,NNE,29,2.0,3.0,96,0.00,,---,0.00,0.00,VWS V14.00,2013-02-10 23:31:00,
2013-02-10 17:36:00,32.7,31.7,29.31,NNE,22,0.0,3.0,96,0.00,,---,0.00,0.00,VWS V14.00,2013-02-10 23:36:00,
2013-02-10 17:41:00,32.7,31.7,29.31,NNE,18,1.0,3.0,96,0.00,,---,0.00,0.00,VWS V14.00,2013-02-10 23:41:00,
2013-02-10 17:46:00,32.7,31.9,29.31,NNE,17,0.0,3.0,97,0.00,,---,0.00,0.00,VWS V14.00,2013-02-10 23:46:00,
2013-02-10 17:51:00,32.6,31.8,29.31,NNE,20,0.0,3.0,97,0.00,,---,0.00,0.00,VWS V14.00,2013-02-10 23:51:00,
2013-02-10 17:56:00,32.6,31.8,29.31,NNE,18,2.0,3.0,97,0.00,,---,0.00,0.00,VWS V14.00,2013-02-10 23:56:00,
2013-02-10 18:01:00,32.7,31.9,29.30,NNE,18,0.0,3.0,97,0.00,,---,0.00,0.00,VWS V14.00,2013-02-11 00:01:00,
2013-02-10 18:06:00,32.7,31.9,29.31,NNE,26,1.0,4.0,97,0.00,,---,0.00,0.00,VWS V14.00,2013-02-11 00:06:00,
2013-02-10 18:12:00,32.7,31.9,29.31,NNE,28,2.0,4.0,97,0.00,,---,0.00,0.00,VWS V14.00,2013-02-11 00:12:00,
2013-02-10 18:17:00,32.7,31.9,29.31,NNE,30,0.0,4.0,97,0.00,,---,0.00,0.00,VWS V14.00,2013-02-11 00:17:00,
2013-02-10 18:22:00,32.7,31.9,29.31,NNE,26,1.0,4.0,97,0.00,,---,0.00,0.00,VWS V14.00,2013-02-11 00:22:00,
2013-02-10 18:27:00,32.7,31.9,29.31,NNE,15,3.0,5.0,97,0.00,,---,0.00,0.00,VWS V14.00,2013-02-11 00:27:00,
2013-02-10 18:32:00,32.7,31.9,29.31,North,11,0.0,4.0,97,0.00,,---,0.00,0.00,VWS V14.00,2013-02-11 00:32:00,
2013-02-10 18:37:00,32.7,31.9,29.30,NNE,21,1.0,4.0,97,0.00,,---,0.00,0.00,VWS V14.00,2013-02-11 00:37:00,
2013-02-10 18:42:00,32.7,31.9,29.30,North,355,3.0,4.0,97,0.00,,---,0.00,0.00,VWS V14.00,2013-02-11 00:42:00,
2013-02-10 18:47:00,32.7,31.9,29.30,North,355,1.0,4.0,97,0.00,,---,0.00,0.00,VWS V14.00,2013-02-11 00:47:00,
2013-02-10 18:52:00,32.8,32.0,29.30,North,360,0.0,4.0,97,0.00,,---,0.00,0.00,VWS V14.00,2013-02-11 00:52:00,
2013-02-10 18:57:00,32.7,31.9,29.30,North,5,0.0,4.0,97,0.00,,---,0.00,0.00,VWS V14.00,2013-02-11 00:57:00,
2013-02-10 19:02:00,32.8,32.0,29.30,North,5,1.0,1.0,97,0.00,,---,0.00,0.00,VWS V14.00,2013-02-11 01:02:00,
2013-02-10 19:08:00,32.8,32.0,29.30,North,5,0.0,3.0,97,0.00,,---,0.00,0.00,VWS V14.00,2013-02-11 01:08:00,
2013-02-10 19:13:00,32.8,32.0,29.30,North,5,2.0,3.0,97,0.00,,---,0.00,0.00,VWS V14.00,2013-02-11 01:13:00,
2013-02-10 19:18:00,32.7,31.9,29.30,North,5,0.0,3.0,97,0.00,,---,0.00,0.00,VWS V14.00,2013-02-11 01:18:00,
2013-02-10 19:23:00,32.7,31.9,29.30,North,9,0.0,3.0,97,0.00,,---,0.00,0.00,VWS V14.00,2013-02-11 01:23:00,
2013-02-10 19:28:00,32.7,31.9,29.30,North,5,2.0,2.0,97,0.00,,---,0.00,0.00,VWS V14.00,2013-02-11 01:28:00,
2013-02-10 19:33:00,32.7,31.9,29.30,North,10,1.0,3.0,97,0.00,,---,0.00,0.00,VWS V14.00,2013-02-11 01:33:00,
2013-02-10 19:38:00,32.7,31.9,29.30,NNW,342,2.0,5.0,97,0.00,,---,0.00,0.00,VWS V14.00,2013-02-11 01:38:00,
2013-02-10 19:43:00,32.6,31.8,29.30,North,5,5.0,5.0,97,0.00,,---,0.00,0.00,VWS V14.00,2013-02-11 01:43:00,
2013-02-10 19:48:00,32.5,31.7,29.30,North,349,0.0,5.0,97,0.00,,---,0.00,0.00,VWS V14.00,2013-02-11 01:48:00,
2013-02-10 19:53:00,32.5,31.7,29.30,North,360,6.0,6.0,97,0.00,,---,0.00,0.00,VWS V14.00,2013-02-11 01:53:00,
2013-02-10 19:59:00,32.4,31.6,29.30,NNW,329,3.0,5.0,97,0.00,,---,0.00,0.00,VWS V14.00,2013-02-11 01:59:00,
2013-02-10 20:04:00,32.4,31.6,29.29,NNW,341,1.0,5.0,97,0.00,,---,0.00,0.00,VWS V14.00,2013-02-11 02:04:00,
2013-02-10 20:09:00,32.3,31.5,29.30,North,355,4.0,7.0,97,0.00,,---,0.00,0.00,VWS V14.00,2013-02-11 02:09:00,
2013-02-10 20:14:00,32.3,31.5,29.29,North,5,2.0,7.0,97,0.00,,---,0.00,0.00,VWS V14.00,2013-02-11 02:14:00,
2013-02-10 20:19:00,32.3,31.5,29.30,North,360,1.0,7.0,97,0.00,,---,0.00,0.00,VWS V14.00,2013-02-11 02:19:00,
2013-02-10 20:24:00,32.3,31.5,29.30,NNW,327,1.0,7.0,97,0.00,,---,0.00,0.00,VWS V14.00,2013-02-11 02:24:00,
2013-02-10 20:29:00,32.3,31.5,29.30,NW,323,4.0,5.0,97,0.00,,---,0.00,0.00,VWS V14.00,2013-02-11 02:29:00,
2013-02-10 20:34:00,32.2,31.5,29.30,NW,309,2.0,6.0,97,0.00,,---,0.00,0.00,VWS V14.00,2013-02-11 02:34:00,
2013-02-10 20:39:00,32.2,31.5,29.30,NNW,338,2.0,6.0,97,0.00,,---,0.00,0.00,VWS V14.00,2013-02-11 02:39:00,
2013-02-10 20:44:00,32.2,31.5,29.30,North,355,4.0,6.0,97,0.00,,---,0.00,0.00,VWS V14.00,2013-02-11 02:44:00,
2013-02-10 20:49:00,32.2,31.5,29.30,NNW,346,4.0,8.0,97,0.00,,---,0.00,0.00,VWS V14.00,2013-02-11 02:49:00,
2013-02-10 20:54:00,32.2,31.5,29.30,NNW,344,2.0,8.0,97,0.00,,---,0.00,0.00,VWS V14.00,2013-02-11 02:54:00,
2013-02-10 21:00:00,32.2,31.5,29.30,NNW,331,2.0,5.0,97,0.00,,---,0.00,0.00,VWS V14.00,2013-02-11 03:00:00,
2013-02-10 21:04:00,32.2,31.5,29.30,NNW,333,2.0,10.0,97,0.00,,---,0.00,0.00,VWS V14.00,2013-02-11 03:04:00,
2013-02-10 21:10:00,32.2,31.5,29.30,NW,324,4.0,10.0,97,0.00,,---,0.00,0.00,VWS V14.00,2013-02-11 03:10:00,
2013-02-10 21:15:00,32.3,31.5,29.30,NNW,329,3.0,10.0,97,0.00,,---,0.00,0.00,VWS V14.00,2013-02-11 03:15:00,
2013-02-10 21:20:00,32.3,31.5,29.30,NNW,330,5.0,10.0,97,0.00,,---,0.00,0.00,VWS V14.00,2013-02-11 03:20:00,
2013-02-10 21:25:00,32.3,31.5,29.30,NW,314,4.0,10.0,97,0.00,,---,0.00,0.00,VWS V14.00,2013-02-11 03:25:00,
2013-02-10 21:30:00,32.2,31.5,29.30,North,355,3.0,8.0,97,0.00,,---,0.00,0.00,VWS V14.00,2013-02-11 03:30:00,
2013-02-10 21:35:00,32.1,31.4,29.30,NW,304,4.0,8.0,97,0.00,,---,0.00,0.00,VWS V14.00,2013-02-11 03:35:00,
2013-02-10 21:40:00,32.1,31.4,29.30,NW,324,2.0,8.0,97,0.00,,---,0.00,0.00,VWS V14.00,2013-02-11 03:40:00,
2013-02-10 21:45:00,32.1,31.4,29.30,NW,315,4.0,8.0,97,0.00,,---,0.00,0.00,VWS V14.00,2013-02-11 03:45:00,
2013-02-10 21:50:00,32.0,31.2,29.30,NNW,336,3.0,9.0,97,0.00,,---,0.00,0.00,VWS V14.00,2013-02-11 03:50:00,
2013-02-10 21:55:00,31.8,31.0,29.30,NNE,20,11.0,11.0,97,0.00,,---,0.00,0.00,VWS V14.00,2013-02-11 03:55:00,
2013-02-10 22:00:00,31.6,30.9,29.31,NW,315,7.0,7.0,97,0.00,,---,0.00,0.00,VWS V14.00,2013-02-11 04:00:00,
2013-02-10 22:05:00,31.6,30.9,29.31,North,5,6.0,12.0,97,0.00,,---,0.00,0.00,VWS V14.00,2013-02-11 04:05:00,
2013-02-10 22:10:00,31.4,30.6,29.31,NNW,327,5.0,12.0,97,0.00,,---,0.00,0.00,VWS V14.00,2013-02-11 04:10:00,
2013-02-10 22:15:00,31.3,30.3,29.31,NNW,346,5.0,12.0,96,0.00,,---,0.00,0.00,VWS V14.00,2013-02-11 04:15:00,
2013-02-10 22:20:00,31.1,30.1,29.32,NNW,344,5.0,12.0,96,0.00,,---,0.00,0.00,VWS V14.00,2013-02-11 04:20:00,
2013-02-10 22:25:00,31.0,30.0,29.32,NW,317,7.0,12.0,96,0.00,,---,0.00,0.00,VWS V14.00,2013-02-11 04:25:00,
2013-02-10 22:30:00,30.8,29.8,29.32,WNW,302,6.0,12.0,96,0.00,,---,0.00,0.00,VWS V14.00,2013-02-11 04:30:00,
2013-02-10 22:36:00,30.6,29.6,29.33,WNW,287,5.0,13.0,96,0.00,,---,0.00,0.00,VWS V14.00,2013-02-11 04:36:00,
2013-02-10 22:41:00,30.5,29.5,29.33,NW,319,12.0,13.0,96,0.00,,---,0.00,0.00,VWS V14.00,2013-02-11 04:41:00,
2013-02-10 22:46:00,30.5,29.5,29.33,NW,317,4.0,17.0,96,0.00,,---,0.00,0.00,VWS V14.00,2013-02-11 04:46:00,
2013-02-10 22:51:00,30.3,29.3,29.33,NW,310,9.0,17.0,96,0.00,,---,0.00,0.00,VWS V14.00,2013-02-11 04:51:00,
2013-02-10 22:56:00,29.9,28.9,29.33,North,5,6.0,17.0,96,0.00,,---,0.00,0.00,VWS V14.00,2013-02-11 04:56:00,
2013-02-10 23:00:00,29.7,28.7,29.33,WNW,302,7.0,11.0,96,0.00,,---,0.00,0.00,VWS V14.00,2013-02-11 05:00:00,
2013-02-10 23:01:00,29.7,28.7,29.33,WNW,299,6.0,11.0,96,0.00,,---,0.00,0.00,VWS V14.00,2013-02-11 05:01:00,
2013-02-10 23:06:00,29.5,28.5,29.34,NNW,332,4.0,14.0,96,0.00,,---,0.00,0.00,VWS V14.00,2013-02-11 05:06:00,
2013-02-10 23:11:00,29.3,28.3,29.34,NNW,347,4.0,17.0,96,0.00,,---,0.00,0.00,VWS V14.00,2013-02-11 05:11:00,
2013-02-10 23:16:00,29.2,28.2,29.35,NNW,331,6.0,17.0,96,0.00,,---,0.00,0.00,VWS V14.00,2013-02-11 05:16:00,
2013-02-10 23:21:00,29.2,28.2,29.35,NW,322,5.0,17.0,96,0.00,,---,0.00,0.00,VWS V14.00,2013-02-11 05:21:00,
2013-02-10 23:26:00,29.1,28.1,29.35,North,360,6.0,18.0,96,0.00,,---,0.00,0.00,VWS V14.00,2013-02-11 05:26:00,
2013-02-10 23:31:00,29.1,28.1,29.35,NW,317,6.0,13.0,96,0.00,,---,0.00,0.00,VWS V14.00,2013-02-11 05:31:00,
2013-02-10 23:37:00,29.1,28.1,29.35,NNW,342,3.0,17.0,96,0.00,,---,0.00,0.00,VWS V14.00,2013-02-11 05:37:00,
2013-02-10 23:42:00,29.1,28.1,29.36,NW,312,7.0,17.0,96,0.00,,---,0.00,0.00,VWS V14.00,2013-02-11 05:42:00,
2013-02-10 23:47:00,29.2,28.2,29.36,North,355,3.0,17.0,96,0.00,,---,0.00,0.00,VWS V14.00,2013-02-11 05:47:00,
2013-02-10 23:52:00,29.2,28.2,29.36,NW,325,5.0,17.0,96,0.00,,---,0.00,0.00,VWS V14.00,2013-02-11 05:52:00,
2013-02-10 23:57:00,29.2,28.2,29.36,NW,312,4.0,17.0,96,0.00,,---,0.00,0.00,VWS V14.00,2013-02-11 05:57:00,